Location: Hertford
(51.8000°N, 0.0667°W)
Time: 21:54:44
(UTC+00:00)

USA 238 DEB - Pass Details

Date: 18 September 2020
Orbit: 1004 x 1208 km, 63.4° (Epoch: 28 October)

Event Time Altitude Azimuth Distance (km) Brightness Sun altitude
Rises 19:30:13 0° 313° (NW) 3,917 8.0 -13.4°
Reaches altitude 10° 19:32:50 10° 314° (NW) 2,986 7.1 -13.8°
Maximum altitude 19:40:01 87° 43° (NE) 1,161 3.8 -14.8°
Enters shadow 19:45:40 19° 134° (SE) 2,476 5.0 -15.6°
